sat.trackr.live / text

‹ back to catalog

TIANQI-15

NORAD 49027 · 2021-065B

PAYLOAD ACTIVE UNKNOWN

§ Identity

Operator
Country
PRC
Launch date
2021-07-19
Launch site
XICLF
Launch vehicle
Mass (kg)
RCS (m²)

External: N2YO · Heavens-Above · Gunter

§ Orbital elements

Epoch: 2026-05-24T23:34:01.058016Z

Period
95.35 min
Inclination
34.9996°
Eccentricity
0.0006104
Mean motion
15.10282674 rev/d
Perigee alt
531.1 km
Apogee alt
539.6 km
Semi-major
6,913.5 km
B*
2.8310e-4
RAAN
358.7549°
Arg perigee
214.9820°
Mean anomaly
145.0490°
Rev number
26,576

§ Raw data

TIANQI-151 49027U 21065B   26144.98195669  .00004709  00000+0  28310-3 0  99922 49027  34.9996 358.7549 0006104 214.9820 145.0490 15.10282674265767

JSON: /api/v1/satellites/49027 · /tle

For live sub-satellite position, see the globe view (requires WebGL).

§ Visibility from observer

Set your observer location to see the next 7 days of passes ≥ 10°. The values pass through the URL so the page stays shareable.

No JS? Fill the form by hand. The geolocation button needs JavaScript.